FW4137 Weather Reports


time (UTC)temp
C
wind
direction
speed
KPH
gust
KPH
rain 1hr
cm
rain 24hr
cm
rain mn
cm
humidity
%
barometer
mb
20260504081543 18 99 0.0 0.0 0.00 0.00 0.00 65 1004.4
20260504044527 21 172 0.0 0.0 0.00 0.00 0.00 55 1004.2
20260504043030 22 172 0.0 0.0 0.00 0.00 0.00 52 1004.1
20260504041529 22 172 0.0 0.0 0.00 0.00 0.00 52 1004.1
20260504040026 22 200 0.0 0.0 0.00 0.00 0.00 52 1003.9
20260504034525 23 205 0.0 0.0 0.00 0.00 0.00 52 1003.9
20260504033025 24 205 0.0 0.0 0.00 0.00 0.00 49 1003.8
20260504031526 25 205 0.0 0.0 0.00 0.00 0.00 49 1003.8
20260504030023 25 205 0.0 0.0 0.00 0.00 0.00 50 1003.7
20260504024522 26 205 0.0 0.0 0.00 0.00 0.00 49 1003.7
20260504023022 26 205 0.0 8.0 0.00 0.00 0.00 50 1003.6
20260504021521 26 194 0.0 0.0 0.00 0.00 0.00 48 1003.7
20260504020032 27 178 0.0 6.4 0.00 0.00 0.00 47 1003.7
20260504014518 28 232 0.0 8.0 0.00 0.00 0.00 45 1003.8
20260504013022 28 118 1.6 8.0 0.00 0.00 0.00 42 1003.9
20260504011517 28 186 0.0 12.9 0.00 0.00 0.00 41 1003.9
20260504010015 28 202 3.2 11.3 0.00 0.00 0.00 39 1004.1
20260504004532 29 207 1.6 8.0 0.00 0.00 0.00 39 1004.1
20260504003016 29 211 1.6 9.7 0.00 0.00 0.00 38 1004.3
20260504001526 29 248 0.0 11.3 0.00 0.00 0.00 39 1004.4
20260504000009 29 192 1.6 11.3 0.00 0.00 0.00 37 1004.6
20260503234513 29 271 0.0 11.3 0.00 0.00 0.00 38 1004.7
20260503233006 29 202 1.6 12.9 0.00 0.00 0.00 38 1004.8
20260503231503 29 229 3.2 8.0 0.00 0.00 0.00 38 1005.0
20260503230003 28 146 0.0 11.3 0.00 0.00 0.00 37 1005.2
20260503224611 29 252 4.8 11.3 0.00 0.00 0.00 36 1005.4
20260503223110 28 252 1.6 14.5 0.00 0.00 0.00 38 1005.6
20260503221554 28 208 0.0 14.5 0.00 0.00 0.00 39 1005.7
20260503220052 28 242 0.0 8.0 0.00 0.00 0.00 35 1006.0
20260503214555 28 207 0.0 8.0 0.00 0.00 0.00 37 1006.1
20260503213046 27 235 1.6 14.5 0.00 0.00 0.00 37 1006.3
20260503211541 27 236 3.2 9.7 0.00 0.00 0.00 37 1006.5
20260503210038 27 238 1.6 11.3 0.00 0.00 0.00 37 1006.6
20260503204542 26 194 1.6 14.5 0.00 0.00 0.00 39 1006.9
20260503203033 26 184 0.0 8.0 0.00 0.00 0.00 43 1007.0
20260503201532 26 216 0.0 6.4 0.00 0.00 0.00 36 1007.2
20260503200027 25 117 0.0 8.0 0.00 0.00 0.00 38 1007.5
20260503194525 26 202 0.0 6.4 0.00 0.00 0.00 38 1007.7
20260503193022 25 153 1.6 12.9 0.00 0.00 0.00 38 1007.8
20260503191520 25 110 0.0 9.7 0.00 0.00 0.00 40 1007.9
20260503190017 24 208 0.0 11.3 0.00 0.00 0.00 45 1008.0
20260503184513 23 200 0.0 6.4 0.00 0.00 0.00 44 1008.2
20260503183009 23 190 0.0 4.8 0.00 0.00 0.00 42 1008.3
20260503181522 22 179 0.0 4.8 0.00 0.00 0.00 43 1008.5
20260503180013 22 217 1.6 8.0 0.00 0.00 0.00 42 1008.7
20260503174501 22 175 0.0 4.8 0.00 0.00 0.00 43 1009.0
20260503173107 21 132 0.0 6.4 0.00 0.00 0.00 44 1009.1
20260503171554 21 131 0.0 8.0 0.00 0.00 0.00 47 1009.3
20260503170103 20 142 0.0 4.8 0.00 0.00 0.00 47 1009.5